This is the latest recevied weather packets stored in our database for station/object W4DHW-4. If no packets are shown the sender has not sent any weather packets the latest 10 day(s).
| Time | Temp. | Humidity | Pressure | Rain* | Wind** | Luminosity | Snow |
|---|---|---|---|---|---|---|---|
| 1777989072 | 20° C | 57% | 1015.2 hPa | 0 mm | - | 632 W/m² | - |
| 1777988767 | 20° C | 58% | 1015.5 hPa | 0 mm | - | 647 W/m² | - |
| 1777988465 | 19.44° C | 60% | 1015.1 hPa | 0 mm | - | 467 W/m² | - |
| 1777988162 | 19.44° C | 61% | 1015.2 hPa | 0 mm | - | 235 W/m² | - |
| 1777987858 | 18.33° C | 61% | 1015.3 hPa | 0 mm | - | 541 W/m² | - |
| 1777987554 | 18.33° C | 63% | 1015.2 hPa | 0 mm | - | 502 W/m² | - |
| 1777987252 | 18.89° C | 64% | 1015.2 hPa | 0 mm | - | 475 W/m² | - |
| 1777986948 | 17.78° C | 66% | 1015.1 hPa | 0 mm | - | 460 W/m² | - |
| 1777986647 | 17.78° C | 68% | 1015.1 hPa | 0 mm | - | 434 W/m² | - |
| 1777986344 | 17.22° C | 70% | 1015.1 hPa | 0 mm | - | 402 W/m² | - |
| 1777986043 | 16.67° C | 71% | 1015.2 hPa | 0 mm | - | 370 W/m² | - |
| 1777985739 | 15.56° C | 75% | 1015.1 hPa | 0 mm | - | 350 W/m² | - |
| 1777985436 | 15.56° C | 76% | 1015 hPa | 0 mm | - | 355 W/m² | - |
| 1777985132 | 15.56° C | 74% | 1015.3 hPa | 0 mm | - | 352 W/m² | - |
| 1777984829 | 15° C | 75% | 1015.2 hPa | 0 mm | - | 331 W/m² | - |
| 1777984525 | 15° C | 76% | 1015.4 hPa | 0 mm | - | 312 W/m² | - |
| 1777984221 | 15° C | 76% | 1015.5 hPa | 0 mm | - | 300 W/m² | - |
| 1777983919 | 14.44° C | 76% | 1015.4 hPa | 0 mm | - | 286 W/m² | - |
| 1777983615 | 13.89° C | 77% | 1015.5 hPa | 0 mm | - | 274 W/m² | - |
| 1777983312 | 13.33° C | 81% | 1015.3 hPa | 0 mm | - | 235 W/m² | - |
| 1777983009 | 12.78° C | 84% | 1015.4 hPa | 0 mm | - | 228 W/m² | - |
| 1777982705 | 12.22° C | 85% | 1015.4 hPa | 0 mm | - | 199 W/m² | - |
| 1777982404 | 11.67° C | 86% | 1015.6 hPa | 0 mm | - | 195 W/m² | - |
| 1777982100 | 11.11° C | 87% | 1015.5 hPa | 0 mm | - | 165 W/m² | - |
| 1777981799 | 10.56° C | 88% | 1015.2 hPa | 0 mm | - | 94 W/m² | - |
* Rain latest hour (hover to see other rain measurements)
** Current wind speed in m/s (hover to see current wind gust speed)